Helicity
-6 -7 -5 2 0 1 42 17 -7 -5 2 11 11 3 6 -14 -9 16 -14 75 105 189 150 146 127 115 105 106 92 91 96 94 92 87 85 70 57 60 40 44 50 63 61 49 36 24 18 19 14
-9 -2 3 11 39 91 79 38 42 5 0 31 22 14 11 5 -5 -6 20 44 103 188 162 154 161 157 119 107 98 93 89 82 80 83 79 67 51 49 38 39 57 71 72 61 54 44 31 14 4
1 13 16 35 62 112 102 68 37 -5 -9 10 21 13 14 4 7 10 -26 57 103 166 174 162 191 179 148 111 99 100 84 78 75 80 73 66 50 42 44 31 53 73 86 78 71 65 67 51 32
24 23 26 48 81 69 59 21 -9 -2 4 13 33 45 4 0 10 -10 50 60 88 124 178 204 217 207 170 136 114 104 98 82 70 69 67 59 52 43 41 36 42 65 89 81 87 83 73 69 53
35 37 49 58 56 53 43 38 27 28 35 36 21 56 26 29 15 38 71 55 68 78 127 224 232 227 198 152 128 116 110 94 79 72 65 60 54 47 44 44 38 54 80 75 78 76 72 60 54
58 50 72 62 47 38 40 85 65 62 47 54 66 81 41 26 31 60 64 40 32 90 106 186 211 218 209 164 134 124 113 106 92 80 69 61 60 53 52 47 51 50 76 75 76 71 69 70 55
59 67 63 57 62 64 77 93 147 118 110 111 67 106 51 29 48 88 94 51 56 62 116 160 176 188 190 160 136 118 122 114 102 90 76 58 59 53 50 52 56 63 74 76 67 71 80 72 59
60 68 64 48 63 80 102 104 153 205 210 90 78 102 86 45 83 125 113 79 85 64 94 127 136 158 172 154 126 118 110 111 107 97 80 59 50 49 51 53 54 57 72 84 73 86 87 84 78
64 78 63 56 66 96 103 141 94 139 168 146 107 88 54 74 117 141 135 112 104 72 72 97 115 133 163 138 103 98 100 97 93 104 92 73 39 40 43 34 52 55 58 79 91 92 85 81 81
87 64 33 62 64 102 106 90 52 84 146 123 99 89 70 70 78 118 124 135 127 96 90 92 103 138 175 144 129 91 74 83 93 88 96 91 67 49 32 32 41 55 61 63 92 94 92 73 58
67 57 60 75 69 64 59 38 16 21 60 81 99 63 49 54 62 82 101 121 119 104 118 104 108 131 163 140 147 141 102 98 96 101 109 100 100 82 64 68 54 55 64 68 69 86 71 82 73
66 56 53 74 74 64 44 13 6 8 33 36 48 45 76 73 98 124 99 88 131 145 127 123 118 141 140 118 123 152 164 129 123 120 118 118 123 123 97 83 94 98 87 83 63 55 57 64 79
61 60 54 71 67 55 67 11 -18 -21 8 -5 17 36 61 76 63 68 59 23 65 125 143 137 133 133 139 136 108 110 167 179 153 146 120 113 102 110 114 109 93 92 97 73 101 99 87 66 70
56 57 48 40 41 67 74 34 64 22 30 -17 17 58 65 86 64 34 30 34 52 98 125 136 126 135 147 156 137 111 109 166 195 147 129 123 84 80 89 91 83 114 88 77 59 100 113 112 126
54 35 31 30 65 66 61 31 89 57 43 32 63 83 92 86 54 38 52 85 77 94 134 148 126 139 156 149 148 126 129 138 160 158 126 108 75 84 88 82 102 90 88 74 87 84 111 126 131
64 21 35 63 49 78 32 13 61 70 106 86 40 40 75 76 76 70 65 72 63 63 119 153 134 121 134 154 144 126 114 106 91 129 129 116 81 75 95 97 90 94 106 91 100 102 111 134 138
108 60 50 14 38 73 66 32 60 108 104 71 32 5 26 18 7 49 65 53 70 67 84 130 159 142 114 147 140 122 116 86 61 97 106 115 86 65 75 80 86 98 87 102 106 117 110 135 171
83 72 48 38 55 55 72 47 32 56 38 -24 -56 -48 -24 -15 -5 31 79 108 98 72 61 113 180 121 120 153 164 143 123 84 60 73 90 98 102 68 65 67 73 84 68 100 125 120 117 163 166
103 89 65 45 44 37 39 47 53 20 24 -35 -19 11 20 16 15 75 103 153 131 90 91 125 126 127 199 209 211 162 163 143 71 62 77 74 82 75 72 94 96 91 71 76 108 146 172 243 314
108 84 70 38 34 24 21 19 14 64 71 72 45 14 24 27 76 73 119 124 112 94 78 116 106 105 127 154 149 131 154 124 85 80 50 59 62 71 78 91 106 102 100 95 133 181 215 267 320
121 120 114 85 68 12 6 -30 25 42 35 47 37 46 39 78 52 83 118 143 117 62 47 50 64 49 73 113 194 206 156 120 96 58 43 65 58 67 63 61 83 103 116 117 134 157 217 253 305
128 84 92 80 89 66 81 -3 78 96 76 76 11 55 70 79 104 116 119 137 108 77 63 15 50 60 89 145 127 137 101 95 62 72 84 73 88 93 73 70 80 84 117 118 153 175 209 284 279
141 76 58 117 123 127 98 108 203 169 124 62 88 63 99 80 101 137 161 137 99 72 55 62 83 89 120 110 95 106 80 83 97 102 76 77 110 94 86 76 90 100 110 111 127 175 183 210 275
155 209 174 175 159 128 155 191 33 209 93 136 29 77 87 100 116 175 165 134 96 81 75 78 88 88 72 60 62 69 86 91 115 130 132 147 119 121 94 104 88 104 94 126 144 161 162 168 222
264 293 245 191 195 185 136 166 180 230 187 104 111 124 115 142 157 187 187 140 104 59 73 84 76 75 69 53 36 31 43 54 69 92 111 132 103 81 98 137 133 122 88 120 126 140 161 184 208
229 327 314 186 176 127 131 249 242 49 76 115 167 138 168 170 170 178 205 169 139 103 104 108 102 108 92 82 66 57 66 72 78 71 73 57 44 54 70 92 117 103 105 115 137 143 141 153 207
319 271 182 209 179 168 191 186 202 282 253 214 60 136 181 201 182 183 209 200 165 151 165 152 163 170 150 133 120 131 138 129 118 117 105 103 112 106 94 93 99 115 118 126 131 175 178 198 242
228 216 290 357 303 292 275 242 257 234 106 53 36 134 137 152 202 219 217 210 232 198 192 221 207 194 159 133 113 110 106 109 111 104 108 102 97 97 107 104 98 103 124 148 168 186 192 198 218
368 339 373 361 375 367 314 243 153 120 73 58 73 125 133 175 234 226 267 240 220 227 222 212 178 162 145 130 131 135 142 139 133 119 106 91 84 83 85 91 95 114 142 166 173 185 208 225 221
203 271 510 388 348 368 311 260 300 295 236 202 170 168 158 195 270 299 279 253 221 232 228 208 178 171 164 153 146 142 128 105 97 94 88 60 58 67 68 61 68 97 123 158 174 210 241 235 218
Wind_Speed
32 32 30 29 29 32 34 33 31 33 35 35 41 42 47 44 43 47 37 39 39 43 45 45 45 43 43 43 43 44 44 46 46 48 48 49 50 51 51 53 54 54 55 54 51 51 51 51 51
31 32 31 28 26 26 30 30 33 33 36 43 43 43 44 46 44 44 43 36 39 41 41 42 42 42 41 42 41 41 43 44 44 45 46 47 47 49 51 51 53 54 55 55 54 52 51 50 50
31 32 29 27 27 25 26 29 30 31 32 32 36 37 36 39 40 39 37 37 38 38 37 38 40 39 39 39 38 39 40 42 42 42 43 44 46 47 49 49 51 52 54 54 53 51 49 46 43
33 30 29 24 24 26 26 27 23 26 29 29 32 37 34 34 37 36 37 37 36 35 34 36 36 36 37 37 37 36 38 39 39 40 40 41 43 44 45 47 48 49 51 51 51 49 47 46 42
32 29 26 23 23 25 25 23 22 23 27 29 29 31 32 33 35 36 35 34 33 32 32 33 32 34 35 35 36 35 35 36 38 38 38 38 39 42 43 45 45 45 46 47 47 46 44 41 39
29 28 26 23 22 25 25 29 21 21 24 27 29 29 30 31 31 32 32 30 30 30 30 29 28 31 34 33 34 33 32 33 35 35 35 35 35 37 39 40 41 40 41 42 42 41 39 36 33
28 28 25 25 25 24 27 30 27 24 24 28 26 28 29 25 28 29 29 28 27 26 26 26 26 27 31 31 33 33 30 30 32 32 32 33 33 33 34 35 36 35 36 36 36 36 34 32 28
28 27 25 25 24 22 27 25 27 31 27 28 28 27 26 23 23 26 26 24 24 22 22 23 23 23 25 27 31 33 32 29 28 29 28 30 31 32 32 31 30 30 30 31 30 31 32 31 29
29 30 29 30 23 24 24 34 22 28 21 29 25 25 26 26 20 21 21 19 19 18 17 19 20 20 19 24 29 31 31 29 25 23 24 25 26 26 28 27 27 26 25 25 25 25 27 27 27
29 31 32 31 26 27 35 31 24 17 26 25 29 26 27 21 15 13 11 10 11 12 15 16 17 17 16 21 23 28 29 26 23 21 21 18 20 21 23 23 23 23 22 20 21 20 21 22 23
31 39 38 37 33 37 34 30 16 17 22 20 27 20 16 15 11 9 5 2 4 8 11 14 14 14 14 18 21 20 27 26 25 24 19 15 15 16 18 19 24 21 20 17 17 16 16 17 20
45 47 41 40 38 44 42 37 18 13 10 20 23 22 21 12 9 7 4 5 5 8 10 10 11 12 12 13 18 18 22 26 26 24 20 17 17 11 13 16 14 10 9 11 12 13 13 14 17
53 51 46 49 54 56 50 11 10 14 12 10 20 17 14 13 8 4 5 5 3 4 7 10 8 8 8 9 14 17 20 26 26 23 24 21 23 17 8 4 2 5 4 7 6 9 9 11 16
48 53 59 58 56 47 40 17 29 17 26 13 18 28 20 19 12 8 3 11 8 6 7 7 10 8 5 5 11 15 16 17 19 22 21 22 24 19 14 11 5 1 4 2 3 5 7 9 16
52 64 66 58 52 47 36 22 21 15 27 19 23 23 25 26 26 19 10 7 13 14 11 13 14 12 10 7 9 11 13 13 15 16 21 23 23 16 14 10 5 4 4 1 3 6 9 14 16
54 55 62 48 43 45 30 29 39 36 28 30 22 20 23 36 29 28 29 20 12 14 15 14 16 17 14 10 7 7 9 14 14 11 13 17 20 19 17 13 11 7 6 5 5 6 11 15 17
53 64 62 63 46 42 35 54 46 34 37 39 32 22 27 38 37 38 33 34 28 22 18 16 18 21 18 13 10 9 7 14 14 9 7 9 17 20 20 16 12 9 9 9 10 12 12 14 18
60 62 62 63 47 49 52 47 49 46 48 35 20 35 35 40 36 47 46 43 40 32 21 20 19 21 19 12 12 11 9 12 13 9 5 10 10 14 17 14 12 12 12 14 16 15 15 20 19
54 59 68 65 57 72 71 62 53 52 46 36 33 29 37 37 44 56 55 53 51 40 27 22 21 21 19 16 15 14 14 11 13 12 7 5 6 9 10 9 11 12 14 15 15 15 17 22 18
67 71 75 80 74 59 71 70 57 45 39 38 36 35 39 49 55 64 65 62 61 47 24 21 20 18 18 15 14 15 10 11 11 9 6 7 7 6 5 7 11 13 16 17 18 20 28 30 18
70 70 68 71 74 74 79 89 61 47 33 32 32 34 39 49 56 71 64 53 47 41 21 6 12 13 13 13 12 17 13 18 11 7 7 5 5 8 10 13 17 18 18 21 22 23 25 29 24
80 58 64 68 67 76 55 101 65 54 45 43 45 49 46 51 53 54 47 43 41 37 21 4 2 6 7 10 12 11 12 13 13 10 10 10 12 15 19 22 22 23 22 25 26 25 26 28 29
70 52 50 51 56 68 65 76 67 55 44 43 35 40 43 46 46 42 38 36 33 27 18 11 5 1 4 9 12 11 15 18 15 14 11 13 18 22 24 24 24 24 26 28 27 26 26 22 29
42 43 46 50 56 84 66 60 105 57 49 51 33 37 41 39 42 36 33 28 26 20 14 10 6 3 5 8 11 13 14 16 16 18 16 19 22 25 26 27 31 33 36 37 40 38 31 28 29
44 47 65 70 69 87 58 58 60 58 51 42 41 44 44 44 39 30 26 23 19 14 11 8 4 3 6 8 10 13 16 17 21 23 24 24 26 28 29 32 34 37 42 48 48 42 39 34 33
52 54 67 80 77 85 59 75 72 41 38 42 43 39 51 37 35 28 22 18 16 13 11 8 5 4 7 10 14 16 17 20 22 20 21 27 32 36 36 35 36 41 44 44 41 41 46 45 42
55 70 61 76 74 87 84 87 81 59 56 49 46 47 48 39 32 26 23 18 14 12 12 9 6 7 10 14 17 20 23 25 26 28 29 30 33 38 43 45 46 46 47 49 48 49 48 46 45
65 47 65 61 81 87 83 83 75 65 56 49 57 51 46 32 23 17 17 15 13 12 11 9 11 12 14 17 20 23 25 27 29 31 34 36 40 40 41 44 46 50 50 49 48 47 48 46 45
58 63 60 60 69 80 91 89 61 55 51 52 51 47 43 29 19 12 13 12 10 10 10 12 15 17 20 21 24 25 28 29 31 34 36 40 43 45 47 49 51 49 47 45 44 46 46 46 44
66 67 65 77 77 72 78 98 52 54 53 55 62 52 41 27 20 19 17 15 14 14 13 15 16 19 22 23 25 27 30 31 33 36 40 42 45 46 48 48 49 54 54 49 49 51 49 48 46
Wind_Direction
297 319 347 9 69 68 64 74 81 83 78 80 72 66 64 68 63 52 72 93 95 108 115 120 118 112 108 102 98 98 97 97 97 95 94 93 92 92 91 93 91 90 91 90 85 81 80 79 77
308 318 336 18 33 57 52 73 68 88 85 77 66 66 63 60 56 59 63 85 97 106 111 117 120 117 113 109 103 100 101 100 100 96 94 93 92 92 95 94 93 91 91 92 90 86 83 82 79
311 318 349 14 34 43 41 58 65 90 103 87 58 59 64 56 51 62 61 83 93 105 110 118 120 120 118 116 111 106 105 104 101 97 95 95 95 96 96 95 93 91 91 93 90 87 85 80 74
308 330 351 9 23 40 35 32 90 86 90 81 61 46 57 46 48 58 68 81 90 104 110 118 120 122 123 122 120 114 110 108 105 102 99 99 98 98 96 96 95 93 93 93 92 90 87 87 82
315 333 348 358 9 20 35 38 46 68 34 45 46 47 48 35 36 53 73 83 89 103 110 115 119 125 128 128 128 122 117 113 110 108 105 103 102 102 99 99 96 91 91 92 93 93 91 87 83
319 328 335 344 2 13 31 13 53 53 44 35 28 36 34 28 43 52 66 75 82 100 106 108 117 127 134 135 135 131 124 120 118 112 110 106 103 103 102 100 97 93 92 92 92 92 87 84 76
314 321 328 336 345 360 12 5 22 31 33 15 39 25 27 42 38 51 60 65 72 92 99 104 111 124 136 142 142 141 135 129 124 118 114 112 109 106 104 103 100 94 91 89 86 86 80 74 55
310 318 323 330 337 349 2 15 20 2 15 9 10 23 31 40 47 46 48 59 64 84 97 100 107 116 133 143 151 152 148 142 133 125 118 115 114 113 112 105 100 94 89 88 83 80 79 80 73
304 307 309 316 329 342 352 336 13 3 13 357 9 14 20 27 44 39 40 48 57 80 98 100 110 117 119 142 156 158 157 152 143 133 124 118 116 115 114 110 106 98 92 88 84 76 79 74 68
299 300 304 312 325 330 326 338 356 19 359 357 355 8 12 28 45 46 50 69 78 100 115 111 111 112 111 138 150 161 162 160 157 150 142 129 123 119 118 113 112 108 102 91 84 76 68 55 44
296 291 295 303 314 316 327 336 6 4 348 351 346 4 19 22 19 5 14 67 120 115 120 128 117 108 110 132 143 155 164 167 167 164 157 146 135 129 126 124 131 121 116 97 96 76 62 52 35
284 283 292 301 307 309 317 327 339 338 319 341 340 344 346 341 330 307 272 177 124 146 157 144 135 121 120 113 141 150 165 171 174 174 172 164 155 152 143 142 133 119 100 93 94 93 62 48 31
275 281 290 290 293 297 307 293 295 263 300 260 327 325 318 319 255 274 207 186 148 184 186 183 165 151 119 117 139 147 159 170 175 182 181 177 170 168 171 169 97 346 32 105 53 20 36 37 9
278 279 279 285 295 304 311 313 331 315 337 325 340 333 341 348 1 352 275 208 228 272 244 227 215 198 168 145 150 155 155 163 174 183 192 189 180 177 174 168 170 120 344 66 29 9 14 7 350
279 274 276 288 299 304 315 315 311 297 337 344 348 352 346 345 352 356 352 265 245 255 277 245 226 219 213 193 171 163 161 161 173 180 187 192 189 194 185 182 213 269 280 242 318 331 344 340 344
278 281 278 294 304 309 320 314 324 329 334 335 338 340 342 329 337 339 335 331 306 288 269 255 239 231 225 218 201 193 173 172 174 178 185 198 199 197 196 202 209 243 249 256 272 296 317 324 328
278 275 280 286 303 310 310 310 322 333 323 327 330 327 324 323 323 326 326 323 317 305 278 255 232 225 227 229 227 218 211 176 173 178 202 217 200 199 201 211 226 246 267 276 285 301 303 312 319
274 278 281 284 301 307 306 306 311 316 314 320 291 317 317 318 318 323 321 320 317 310 284 264 245 222 217 232 241 249 249 188 181 185 216 181 201 200 200 218 240 246 254 280 288 286 292 311 308
279 281 282 286 296 297 298 302 305 309 309 292 298 304 314 313 319 321 322 321 316 307 280 251 245 226 214 221 217 231 222 202 192 187 199 213 215 193 203 243 261 255 244 261 273 281 288 303 308
273 277 280 283 289 299 299 300 304 301 289 299 300 307 312 317 323 321 320 320 316 318 300 245 224 215 215 232 235 274 250 266 253 249 224 201 195 215 240 266 284 282 286 282 282 287 302 305 285
273 276 284 287 292 295 300 296 308 316 312 313 310 310 314 319 326 324 324 325 329 332 332 211 197 211 223 240 242 280 288 295 275 235 240 248 259 288 293 303 308 304 293 290 287 290 288 293 285
272 281 284 286 292 291 307 287 305 310 310 314 312 307 311 318 329 334 332 332 338 345 356 58 175 193 218 224 245 236 264 275 279 285 289 287 305 308 309 308 308 308 306 300 297 293 290 295 294
273 283 285 291 292 295 293 297 310 310 315 318 322 313 312 320 330 334 333 335 342 356 15 40 56 126 225 250 261 261 276 286 296 302 299 296 304 310 310 312 314 311 310 311 310 305 298 286 297
275 280 288 293 293 285 290 294 284 301 310 320 325 326 316 320 327 328 327 331 338 352 2 18 25 357 287 270 273 273 278 288 298 302 302 306 310 313 314 314 314 314 312 311 311 309 303 298 292
261 272 279 282 281 283 297 290 275 304 310 315 322 323 317 318 319 320 315 318 328 337 345 339 355 341 304 293 292 290 292 294 299 302 305 305 309 313 313 312 311 311 311 305 305 308 308 307 301
256 264 270 277 282 287 295 290 303 303 299 306 314 316 318 315 313 308 304 302 303 310 316 317 330 346 315 313 313 313 311 309 311 316 317 316 315 315 315 314 312 310 308 307 310 311 310 311 306
267 263 273 279 284 286 287 291 297 300 304 308 308 311 312 310 307 300 293 289 285 289 292 295 310 326 331 327 322 320 319 317 316 318 321 321 320 319 315 314 312 312 310 308 308 308 308 308 307
261 268 270 273 278 281 287 292 293 305 303 304 306 311 314 310 304 292 279 276 278 281 279 291 302 308 317 321 320 321 322 320 320 320 319 320 321 321 320 317 315 313 312 311 309 309 310 311 312
257 261 269 274 274 279 286 291 305 304 307 310 312 314 310 301 291 269 266 264 266 271 277 289 298 301 307 315 318 321 322 322 322 321 320 320 321 322 320 318 317 317 314 313 310 309 310 308 307
253 260 256 267 274 276 283 286 303 308 315 317 313 310 304 296 284 272 262 248 251 265 277 288 297 301 307 313 318 319 318 319 321 322 321 320 323 323 321 321 320 317 315 313 310 309 307 305 303